Flag for U.S.A. Weather past 2 weeks in Honolulu, Hawaii, U.S.A.

Now
67 °F

Passing clouds.


Feels Like: 67 °F
Forecast: 65 / 74 °F
Wind: 3 mph from North

Location: Honolulu International Airport

Current Time: Jan 25, 2015 at 6:36:44 AM

Latest Report: Jan 25, 2015 at 5:53 AM


Visibility: 10 mi

Pressure: 30.01 "Hg

Humidity: 85%

Dew point: 62 °F

Location of HonoluluLocation

Historic Weather in Honolulu — Graph

°F

Honolulu temperature yesterday

Maximum temperature yesterday: 79 °F (at 12:53 PM)
Minimum temperature yesterday: 69 °F (at 9:53 PM)
Average temperature yesterday: 73 °F

Past Weeks' High & Low Weather Summary

 TemperatureHumidityPressure
High84 °F (Jan 18, 2:53 PM)100% (Jan 23, 4:26 PM)30.11 "Hg (Jan 23, 4:26 PM)
Low64 °F (Jan 11, 5:53 AM)40% (Jan 18, 2:53 PM)29.88 "Hg (Jan 11, 2:53 PM)
Average74 °F77%29.99 "Hg
* Reported Jan 10 4:53 AM — Jan 25 4:53 AM, Honolulu, Weather by CustomWeather, © 2014

Note: Actual official high and low records may vary slightly from our data, if they occured in-between our weather recording intervals... More about our weather records

Advertising

Honolulu weather history for previous 24 hours

 ConditionsComfort  
Time TempWeatherWind HumidityBarometerVisibility
4:53 AM
Jan 25
67 °FPassing clouds.8 mph85%30.01 "Hg10 mi
3:53 AM68 °FPassing clouds.8 mph78%30.01 "Hg10 mi
2:53 AM67 °FPassing clouds.6 mph81%30.01 "Hg10 mi
1:53 AM68 °FPassing clouds.7 mph78%30.02 "Hg10 mi
12:53 AM69 °FPassing clouds.7 mph79%30.04 "Hg10 mi
11:53 PM
Jan 24
69 °FPassing clouds.6 mph79%30.06 "Hg10 mi
10:53 PM69 °FPassing clouds.5 mph79%30.06 "Hg10 mi
9:53 PM69 °FPassing clouds.6 mph79%30.07 "Hg10 mi
8:53 PM70 °FPassing clouds.10 mph76%30.07 "Hg10 mi
7:53 PM70 °FPassing clouds.13 mph76%30.06 "Hg10 mi
6:53 PM71 °FPartly cloudy.12 mph76%30.04 "Hg10 mi
5:53 PM72 °FScattered clouds.14 mph71%30.02 "Hg10 mi
4:53 PM75 °FScattered clouds.14 mph64%30.01 "Hg10 mi
3:53 PM76 °FBroken clouds.14 mph64%29.99 "Hg10 mi
2:53 PM78 °FBroken clouds.15 mph62%29.98 "Hg10 mi
1:53 PM79 °FPartly sunny.17 mph60%29.98 "Hg10 mi
12:53 PM79 °FPartly sunny.10 mph65%30.01 "Hg10 mi
11:19 AM73 °FLight rain. Partly sunny.10 mph89%30.05 "Hg9 mi
10:53 AM77 °FBroken clouds.6 mph69%30.06 "Hg10 mi
9:53 AM75 °FScattered clouds.6 mph74%30.06 "Hg10 mi
8:53 AM74 °FScattered clouds.7 mph79%30.05 "Hg10 mi
7:53 AM70 °FScattered clouds.6 mph84%30.03 "Hg10 mi
6:53 AM71 °FPassing clouds.5 mph81%30.01 "Hg10 mi
Weather by CustomWeather, © 2014

See weather overviewHow to use our weather pages